| time (UTC) | temp C | wind direction | speed KPH | gust KPH | rain 1hr cm | rain 24hr cm | rain mn cm | humidity % | barometer mb |
| 20260505183717 | 11 | 195 | 6.4 | 16.1 | 0.00 | 0.00 | 0.00 | 60 | 1001.0 |
| 20260505183217 | 11 | 180 | 6.4 | 14.5 | 0.00 | 0.00 | 0.00 | 61 | 1001.0 |
| 20260505182717 | 10 | 229 | 6.4 | 14.5 | 0.00 | 0.00 | 0.00 | 61 | 1001.0 |
| 20260505182217 | 10 | 213 | 6.4 | 9.7 | 0.00 | 0.00 | 0.00 | 62 | 1000.9 |
| 20260505181717 | 10 | 179 | 4.8 | 14.5 | 0.00 | 0.00 | 0.00 | 63 | 1000.8 |
| 20260505181217 | 10 | 201 | 4.8 | 11.3 | 0.00 | 0.00 | 0.00 | 62 | 1000.8 |
| 20260505180717 | 10 | 211 | 4.8 | 8.0 | 0.00 | 0.00 | 0.00 | 63 | 1001.0 |
| 20260505180217 | 10 | 209 | 6.4 | 11.3 | 0.00 | 0.00 | 0.00 | 62 | 1001.1 |
| 20260505175717 | 10 | 152 | 4.8 | 14.5 | 0.00 | 0.00 | 0.00 | 63 | 1001.0 |
| 20260505175217 | 10 | 217 | 4.8 | 12.9 | 0.00 | 0.00 | 0.00 | 62 | 1001.0 |
| 20260505174717 | 10 | 193 | 4.8 | 8.0 | 0.00 | 0.00 | 0.00 | 63 | 1001.0 |
| 20260505174217 | 10 | 219 | 4.8 | 9.7 | 0.00 | 0.00 | 0.00 | 63 | 1001.0 |
| 20260505173717 | 10 | 213 | 6.4 | 12.9 | 0.00 | 0.00 | 0.00 | 63 | 1000.9 |
| 20260505173217 | 10 | 201 | 6.4 | 11.3 | 0.00 | 0.00 | 0.00 | 63 | 1000.9 |
| 20260505172717 | 10 | 212 | 6.4 | 12.9 | 0.00 | 0.00 | 0.00 | 65 | 1000.7 |
| 20260505172217 | 10 | 211 | 6.4 | 14.5 | 0.00 | 0.00 | 0.00 | 67 | 1000.8 |
| 20260505171717 | 9 | 225 | 6.4 | 12.9 | 0.00 | 0.00 | 0.00 | 68 | 1000.7 |
| 20260505171217 | 9 | 221 | 6.4 | 12.9 | 0.00 | 0.00 | 0.00 | 68 | 1000.7 |
| 20260505170719 | 9 | 220 | 4.8 | 11.3 | 0.00 | 0.00 | 0.00 | 68 | 1000.8 |
| 20260505170217 | 8 | 213 | 4.8 | 11.3 | 0.00 | 0.00 | 0.00 | 70 | 1000.7 |
| 20260505165717 | 8 | 217 | 4.8 | 12.9 | 0.00 | 0.00 | 0.00 | 71 | 1000.8 |
| 20260505165217 | 8 | 206 | 6.4 | 11.3 | 0.00 | 0.00 | 0.00 | 72 | 1000.8 |
| 20260505164717 | 8 | 193 | 6.4 | 11.3 | 0.00 | 0.00 | 0.00 | 73 | 1000.7 |
| 20260505164217 | 8 | 205 | 4.8 | 9.7 | 0.00 | 0.00 | 0.00 | 74 | 1000.7 |
| 20260505163717 | 8 | 159 | 4.8 | 11.3 | 0.00 | 0.00 | 0.00 | 74 | 1000.7 |
| 20260505163217 | 8 | 182 | 4.8 | 9.7 | 0.00 | 0.00 | 0.00 | 74 | 1000.8 |
| 20260505162717 | 8 | 179 | 4.8 | 8.0 | 0.00 | 0.00 | 0.00 | 74 | 1000.8 |
| 20260505162217 | 8 | 173 | 6.4 | 11.3 | 0.00 | 0.00 | 0.00 | 73 | 1000.9 |
| 20260505161717 | 8 | 177 | 6.4 | 11.3 | 0.00 | 0.00 | 0.00 | 72 | 1000.9 |
| 20260505161217 | 8 | 161 | 6.4 | 16.1 | 0.00 | 0.00 | 0.00 | 71 | 1000.9 |
| 20260505160717 | 8 | 198 | 6.4 | 11.3 | 0.00 | 0.00 | 0.00 | 70 | 1000.9 |
| 20260505160217 | 8 | 163 | 6.4 | 11.3 | 0.00 | 0.00 | 0.00 | 70 | 1000.9 |
| 20260505153308 | 8 | 221 | 6.4 | 14.5 | 0.00 | 0.00 | 0.00 | 68 | 1000.2 |
| 20260505152717 | 8 | 179 | 6.4 | 11.3 | 0.00 | 0.00 | 0.00 | 67 | 1000.2 |
| 20260505152217 | 9 | 185 | 6.4 | 14.5 | 0.00 | 0.00 | 0.00 | 66 | 1000.2 |
| 20260505151717 | 9 | 177 | 4.8 | 11.3 | 0.00 | 0.00 | 0.00 | 66 | 1000.1 |
| 20260505151217 | 9 | 206 | 4.8 | 8.0 | 0.00 | 0.00 | 0.00 | 66 | 1000.1 |
| 20260505150717 | 9 | 209 | 4.8 | 11.3 | 0.00 | 0.00 | 0.00 | 65 | 1000.0 |
| 20260505150217 | 9 | 202 | 3.2 | 8.0 | 0.00 | 0.00 | 0.00 | 64 | 1000.1 |
| 20260505140217 | 10 | 221 | 3.2 | 11.3 | 0.00 | 0.00 | 0.00 | 59 | 999.6 |
| 20260505130217 | 11 | 223 | 3.2 | 6.4 | 0.00 | 0.00 | 0.00 | 58 | 998.5 |
| 20260505124717 | 11 | 224 | 3.2 | 6.4 | 0.00 | 0.00 | 0.00 | 55 | 998.2 |
| 20260505124217 | 11 | 224 | 3.2 | 8.0 | 0.00 | 0.00 | 0.00 | 57 | 998.2 |
| 20260505123717 | 11 | 226 | 3.2 | 9.7 | 0.00 | 0.00 | 0.00 | 59 | 998.1 |
| 20260505123217 | 11 | 227 | 3.2 | 9.7 | 0.00 | 0.00 | 0.00 | 62 | 998.0 |
| 20260505122717 | 11 | 212 | 1.6 | 4.8 | 0.00 | 0.00 | 0.00 | 63 | 998.0 |
| 20260505122217 | 11 | 212 | 1.6 | 8.0 | 0.00 | 0.00 | 0.00 | 64 | 998.0 |
| 20260505121717 | 11 | 211 | 1.6 | 4.8 | 0.00 | 0.00 | 0.00 | 66 | 998.1 |
| 20260505121217 | 11 | 211 | 1.6 | 6.4 | 0.00 | 0.00 | 0.00 | 66 | 998.2 |
| 20260505120717 | 11 | 211 | 1.6 | 4.8 | 0.00 | 0.00 | 0.00 | 65 | 998.3 |
| 20260505120217 | 11 | 212 | 1.6 | 3.2 | 0.00 | 0.00 | 0.00 | 63 | 998.3 |
| 20260505115717 | 11 | 212 | 1.6 | 4.8 | 0.00 | 0.00 | 0.00 | 63 | 998.4 |
| 20260505115217 | 11 | 212 | 1.6 | 4.8 | 0.00 | 0.00 | 0.00 | 62 | 998.4 |
| 20260505114717 | 11 | 212 | 1.6 | 6.4 | 0.00 | 0.00 | 0.00 | 60 | 998.4 |
| 20260505114217 | 11 | 212 | 1.6 | 6.4 | 0.00 | 0.00 | 0.00 | 60 | 998.4 |
| 20260505113717 | 11 | 212 | 0.0 | 4.8 | 0.00 | 0.00 | 0.00 | 59 | 998.4 |
| 20260505113217 | 11 | 212 | 0.0 | 0.0 | 0.00 | 0.00 | 0.00 | 58 | 998.4 |
| 20260505112717 | 11 | 212 | 0.0 | 3.2 | 0.00 | 0.00 | 0.00 | 57 | 998.4 |
| 20260505112217 | 11 | 212 | 0.0 | 0.0 | 0.00 | 0.00 | 0.00 | 58 | 998.4 |
| 20260505111717 | 11 | 212 | 0.0 | 0.0 | 0.00 | 0.00 | 0.00 | 58 | 998.3 |
| 20260505111217 | 11 | 212 | 0.0 | 3.2 | 0.00 | 0.00 | 0.00 | 58 | 998.3 |
| 20260505110718 | 11 | 212 | 0.0 | 3.2 | 0.00 | 0.00 | 0.00 | 58 | 998.3 |
| 20260505110217 | 11 | 212 | 0.0 | 1.6 | 0.00 | 0.00 | 0.00 | 58 | 998.2 |
| 20260505102218 | 12 | 230 | 1.6 | 6.4 | 0.00 | 0.00 | 0.00 | 57 | 998.1 |
| 20260505101718 | 12 | 213 | 3.2 | 6.4 | 0.00 | 0.00 | 0.00 | 57 | 998.2 |
| 20260505101218 | 11 | 217 | 3.2 | 6.4 | 0.00 | 0.00 | 0.00 | 57 | 998.1 |
| 20260505100718 | 11 | 211 | 1.6 | 8.0 | 0.00 | 0.00 | 0.00 | 57 | 998.2 |
| 20260505100218 | 11 | 185 | 1.6 | 6.4 | 0.00 | 0.00 | 0.00 | 58 | 998.2 |
| 20260505095718 | 11 | 186 | 1.6 | 4.8 | 0.00 | 0.00 | 0.00 | 59 | 998.2 |
| 20260505095218 | 11 | 185 | 3.2 | 6.4 | 0.00 | 0.00 | 0.00 | 60 | 998.1 |
| 20260505094718 | 11 | 187 | 3.2 | 6.4 | 0.00 | 0.00 | 0.00 | 60 | 998.2 |
| 20260505094218 | 11 | 188 | 1.6 | 8.0 | 0.00 | 0.00 | 0.00 | 61 | 998.2 |
| 20260505093718 | 11 | 187 | 1.6 | 4.8 | 0.00 | 0.00 | 0.00 | 62 | 998.1 |
| 20260505093218 | 11 | 187 | 1.6 | 4.8 | 0.00 | 0.00 | 0.00 | 62 | 998.1 |
| 20260505092718 | 11 | 187 | 3.2 | 6.4 | 0.00 | 0.00 | 0.00 | 62 | 998.0 |
| 20260505092218 | 11 | 187 | 3.2 | 6.4 | 0.00 | 0.00 | 0.00 | 62 | 998.0 |
| 20260505091718 | 11 | 187 | 3.2 | 6.4 | 0.00 | 0.00 | 0.00 | 62 | 998.0 |
| 20260505091218 | 11 | 186 | 3.2 | 6.4 | 0.00 | 0.00 | 0.00 | 63 | 998.0 |
| 20260505090718 | 11 | 186 | 3.2 | 8.0 | 0.00 | 0.00 | 0.00 | 63 | 998.0 |
| 20260505090218 | 11 | 186 | 3.2 | 6.4 | 0.00 | 0.00 | 0.00 | 64 | 998.0 |
| 20260505085718 | 11 | 186 | 3.2 | 4.8 | 0.00 | 0.00 | 0.00 | 64 | 998.0 |
| 20260505085218 | 11 | 186 | 3.2 | 6.4 | 0.00 | 0.00 | 0.00 | 64 | 998.0 |
| 20260505084718 | 11 | 185 | 3.2 | 8.0 | 0.00 | 0.00 | 0.00 | 64 | 998.1 |
| 20260505084218 | 11 | 184 | 3.2 | 9.7 | 0.00 | 0.00 | 0.00 | 64 | 998.1 |
| 20260505083718 | 11 | 182 | 3.2 | 6.4 | 0.00 | 0.00 | 0.00 | 64 | 998.2 |
| 20260505083218 | 11 | 173 | 1.6 | 6.4 | 0.00 | 0.00 | 0.00 | 65 | 998.2 |
| 20260505082718 | 11 | 169 | 1.6 | 9.7 | 0.00 | 0.00 | 0.00 | 66 | 998.2 |
| 20260505082218 | 11 | 181 | 1.6 | 4.8 | 0.00 | 0.00 | 0.00 | 66 | 998.1 |
| 20260505081718 | 11 | 181 | 1.6 | 4.8 | 0.00 | 0.00 | 0.00 | 66 | 998.2 |
| 20260505081218 | 11 | 181 | 0.0 | 4.8 | 0.00 | 0.00 | 0.00 | 66 | 998.2 |
| 20260505080718 | 11 | 182 | 0.0 | 6.4 | 0.00 | 0.00 | 0.00 | 65 | 998.2 |
| 20260505080218 | 11 | 182 | 1.6 | 4.8 | 0.00 | 0.00 | 0.00 | 64 | 998.1 |
| 20260505075718 | 11 | 182 | 1.6 | 12.9 | 0.00 | 0.00 | 0.00 | 63 | 998.2 |
| 20260505075218 | 11 | 245 | 1.6 | 4.8 | 0.00 | 0.00 | 0.00 | 60 | 998.3 |
| 20260505074718 | 11 | 245 | 3.2 | 8.0 | 0.00 | 0.00 | 0.00 | 60 | 998.3 |
| 20260505074218 | 11 | 245 | 1.6 | 9.7 | 0.00 | 0.00 | 0.00 | 60 | 998.3 |
| 20260505073718 | 11 | 246 | 3.2 | 6.4 | 0.00 | 0.00 | 0.00 | 61 | 998.3 |
| 20260505073218 | 11 | 246 | 3.2 | 9.7 | 0.00 | 0.00 | 0.00 | 60 | 998.3 |
| 20260505072718 | 11 | 247 | 1.6 | 4.8 | 0.00 | 0.00 | 0.00 | 60 | 998.3 |
| 20260505072218 | 11 | 247 | 3.2 | 9.7 | 0.00 | 0.00 | 0.00 | 59 | 998.4 |
| 20260505071718 | 11 | 248 | 3.2 | 11.3 | 0.00 | 0.00 | 0.00 | 59 | 998.4 |
| 20260505071218 | 12 | 246 | 3.2 | 6.4 | 0.00 | 0.00 | 0.00 | 58 | 998.3 |
| 20260505070718 | 12 | 246 | 3.2 | 9.7 | 0.00 | 0.00 | 0.00 | 58 | 998.4 |
| 20260505070218 | 12 | 246 | 3.2 | 6.4 | 0.00 | 0.00 | 0.00 | 58 | 998.4 |
| 20260505065718 | 12 | 246 | 3.2 | 11.3 | 0.00 | 0.00 | 0.00 | 58 | 998.3 |
| 20260505065218 | 12 | 254 | 4.8 | 14.5 | 0.00 | 0.00 | 0.00 | 57 | 998.3 |
| 20260505064718 | 12 | 258 | 4.8 | 9.7 | 0.00 | 0.00 | 0.00 | 57 | 998.3 |
| 20260505064218 | 12 | 269 | 4.8 | 12.9 | 0.00 | 0.00 | 0.00 | 56 | 998.2 |
| 20260505063718 | 12 | 224 | 4.8 | 11.3 | 0.00 | 0.00 | 0.00 | 57 | 998.2 |
| 20260505063218 | 12 | 248 | 4.8 | 11.3 | 0.00 | 0.00 | 0.00 | 57 | 998.1 |
| 20260505062718 | 12 | 259 | 4.8 | 14.5 | 0.00 | 0.00 | 0.00 | 58 | 998.0 |
| 20260505062218 | 11 | 261 | 4.8 | 11.3 | 0.00 | 0.00 | 0.00 | 60 | 998.1 |
| 20260505061718 | 12 | 194 | 4.8 | 9.7 | 0.00 | 0.00 | 0.00 | 60 | 998.1 |
| 20260505061218 | 11 | 186 | 3.2 | 9.7 | 0.00 | 0.00 | 0.00 | 61 | 998.2 |
| 20260505060718 | 11 | 202 | 4.8 | 8.0 | 0.00 | 0.00 | 0.00 | 61 | 998.1 |
| 20260505060218 | 11 | 169 | 4.8 | 12.9 | 0.00 | 0.00 | 0.00 | 63 | 998.2 |
| 20260505055718 | 11 | 181 | 6.4 | 14.5 | 0.00 | 0.00 | 0.00 | 62 | 998.3 |
| 20260505055218 | 12 | 232 | 4.8 | 12.9 | 0.00 | 0.00 | 0.00 | 61 | 998.2 |
| 20260505054718 | 12 | 251 | 4.8 | 12.9 | 0.00 | 0.00 | 0.00 | 61 | 998.2 |
| 20260505054218 | 12 | 263 | 6.4 | 11.3 | 0.00 | 0.00 | 0.00 | 61 | 998.1 |
| 20260505053718 | 12 | 268 | 6.4 | 19.3 | 0.00 | 0.00 | 0.00 | 60 | 997.9 |
| 20260505053218 | 12 | 254 | 6.4 | 14.5 | 0.00 | 0.00 | 0.00 | 60 | 997.8 |
| 20260505052718 | 12 | 229 | 6.4 | 14.5 | 0.00 | 0.00 | 0.00 | 59 | 997.7 |
| 20260505052218 | 12 | 221 | 8.0 | 17.7 | 0.00 | 0.00 | 0.00 | 58 | 997.7 |
| 20260505051718 | 12 | 267 | 6.4 | 16.1 | 0.00 | 0.00 | 0.00 | 57 | 997.8 |
| 20260505051219 | 12 | 196 | 6.4 | 14.5 | 0.00 | 0.00 | 0.00 | 57 | 997.7 |
| 20260505050718 | 12 | 261 | 6.4 | 14.5 | 0.00 | 0.00 | 0.00 | 57 | 997.6 |
| 20260505050218 | 12 | 205 | 6.4 | 17.7 | 0.00 | 0.00 | 0.00 | 57 | 997.5 |
| 20260505041718 | 15 | 162 | 4.8 | 14.5 | 0.00 | 0.00 | 0.00 | 45 | 996.9 |
| 20260505041218 | 15 | 227 | 4.8 | 8.0 | 0.00 | 0.00 | 0.00 | 42 | 996.8 |
| 20260505040718 | 15 | 238 | 4.8 | 9.7 | 0.00 | 0.00 | 0.00 | 42 | 996.7 |
| 20260505040218 | 15 | 252 | 6.4 | 12.9 | 0.00 | 0.00 | 0.00 | 42 | 996.7 |
| 20260505035718 | 15 | 213 | 4.8 | 12.9 | 0.00 | 0.00 | 0.00 | 42 | 996.7 |
| 20260505035218 | 15 | 250 | 3.2 | 12.9 | 0.00 | 0.00 | 0.00 | 41 | 996.6 |
| 20260505034718 | 15 | 268 | 3.2 | 16.1 | 0.00 | 0.00 | 0.00 | 41 | 996.5 |
| 20260505034218 | 15 | 212 | 3.2 | 16.1 | 0.00 | 0.00 | 0.00 | 41 | 996.4 |
| 20260505033718 | 15 | 258 | 3.2 | 11.3 | 0.00 | 0.00 | 0.00 | 41 | 996.4 |
| 20260505033218 | 15 | 246 | 3.2 | 12.9 | 0.00 | 0.00 | 0.00 | 41 | 996.4 |
| 20260505032718 | 15 | 251 | 3.2 | 11.3 | 0.00 | 0.00 | 0.00 | 42 | 996.2 |
| 20260505032218 | 15 | 168 | 3.2 | 9.7 | 0.00 | 0.00 | 0.00 | 43 | 996.2 |
| 20260505031718 | 15 | 214 | 4.8 | 9.7 | 0.00 | 0.00 | 0.00 | 44 | 996.2 |
| 20260505031218 | 15 | 177 | 4.8 | 11.3 | 0.00 | 0.00 | 0.00 | 44 | 996.0 |
| 20260505030718 | 15 | 209 | 4.8 | 11.3 | 0.00 | 0.00 | 0.00 | 44 | 995.9 |
| 20260505030218 | 15 | 244 | 3.2 | 4.8 | 0.00 | 0.00 | 0.00 | 44 | 995.9 |
| 20260505025718 | 15 | 250 | 3.2 | 11.3 | 0.00 | 0.00 | 0.00 | 45 | 996.1 |
| 20260505025218 | 15 | 252 | 4.8 | 12.9 | 0.00 | 0.00 | 0.00 | 44 | 996.1 |
| 20260505024718 | 16 | 252 | 3.2 | 9.7 | 0.00 | 0.00 | 0.00 | 44 | 996.0 |
| 20260505024218 | 16 | 253 | 3.2 | 8.0 | 0.00 | 0.00 | 0.00 | 43 | 996.0 |
| 20260505023718 | 16 | 254 | 3.2 | 9.7 | 0.00 | 0.00 | 0.00 | 44 | 995.9 |
| 20260505023218 | 16 | 254 | 3.2 | 8.0 | 0.00 | 0.00 | 0.00 | 44 | 995.9 |
| 20260505022718 | 16 | 254 | 3.2 | 6.4 | 0.00 | 0.00 | 0.00 | 43 | 995.9 |
| 20260505022218 | 16 | 254 | 3.2 | 8.0 | 0.00 | 0.00 | 0.00 | 42 | 995.9 |
| 20260505021718 | 16 | 254 | 3.2 | 8.0 | 0.00 | 0.00 | 0.00 | 41 | 995.9 |
| 20260505021218 | 16 | 255 | 3.2 | 6.4 | 0.00 | 0.00 | 0.00 | 41 | 995.9 |
| 20260505020718 | 16 | 255 | 3.2 | 6.4 | 0.00 | 0.00 | 0.00 | 41 | 995.8 |
| 20260505020218 | 16 | 255 | 3.2 | 8.0 | 0.00 | 0.00 | 0.00 | 41 | 995.8 |
| 20260505015718 | 17 | 255 | 3.2 | 9.7 | 0.00 | 0.00 | 0.00 | 41 | 995.9 |
| 20260505015218 | 17 | 256 | 4.8 | 9.7 | 0.00 | 0.00 | 0.00 | 41 | 995.9 |
| 20260505014718 | 17 | 257 | 4.8 | 11.3 | 0.00 | 0.00 | 0.00 | 39 | 995.8 |
| 20260505014218 | 18 | 257 | 3.2 | 11.3 | 0.00 | 0.00 | 0.00 | 39 | 995.7 |
| 20260505013718 | 18 | 257 | 0.0 | 9.7 | 0.00 | 0.00 | 0.00 | 33 | 995.8 |
| 20260505013218 | 18 | 257 | 0.0 | 6.4 | 0.00 | 0.00 | 0.00 | 33 | 995.7 |
| 20260505012718 | 18 | 257 | 0.0 | 4.8 | 0.00 | 0.00 | 0.00 | 32 | 995.7 |
| 20260505012218 | 19 | 257 | 0.0 | 8.0 | 0.00 | 0.00 | 0.00 | 32 | 995.8 |
| 20260505011718 | 19 | 257 | 0.0 | 4.8 | 0.00 | 0.00 | 0.00 | 32 | 995.9 |
| 20260505011218 | 19 | 257 | 0.0 | 0.0 | 0.00 | 0.00 | 0.00 | 32 | 995.8 |
| 20260505010718 | 20 | 257 | 0.0 | 3.2 | 0.00 | 0.00 | 0.00 | 32 | 995.8 |
| 20260505010218 | 20 | 257 | 0.0 | 4.8 | 0.00 | 0.00 | 0.00 | 33 | 995.7 |
| 20260505005718 | 20 | 257 | 0.0 | 0.0 | 0.00 | 0.00 | 0.00 | 33 | 995.7 |
| 20260505005218 | 20 | 257 | 0.0 | 0.0 | 0.00 | 0.00 | 0.00 | 32 | 995.8 |
| 20260505004719 | 20 | 257 | 0.0 | 0.0 | 0.00 | 0.00 | 0.00 | 32 | 995.8 |
| 20260505004219 | 19 | 257 | 0.0 | 0.0 | 0.00 | 0.00 | 0.00 | 34 | 995.8 |
| 20260505003719 | 19 | 257 | 0.0 | 0.0 | 0.00 | 0.00 | 0.00 | 34 | 995.9 |
| 20260505003218 | 18 | 257 | 0.0 | 0.0 | 0.00 | 0.00 | 0.00 | 34 | 995.9 |
| 20260505002718 | 18 | 257 | 0.0 | 0.0 | 0.00 | 0.00 | 0.00 | 32 | 995.9 |
| 20260505002219 | 18 | 257 | 0.0 | 0.0 | 0.00 | 0.00 | 0.00 | 34 | 995.9 |
| 20260505001719 | 18 | 257 | 0.0 | 0.0 | 0.00 | 0.00 | 0.00 | 34 | 996.0 |
| 20260505001219 | 18 | 257 | 0.0 | 0.0 | 0.00 | 0.00 | 0.00 | 35 | 996.0 |
| 20260505000719 | 18 | 257 | 0.0 | 0.0 | 0.00 | 0.00 | 0.00 | 34 | 996.1 |
| 20260505000219 | 18 | 257 | 0.0 | 0.0 | 0.00 | 0.00 | 0.00 | 35 | 996.0 |
| 20260504235719 | 18 | 257 | 0.0 | 0.0 | 0.00 | 0.00 | 0.00 | 35 | 996.0 |
| 20260504235219 | 18 | 257 | 0.0 | 0.0 | 0.00 | 0.00 | 0.00 | 34 | 996.0 |
| 20260504234719 | 18 | 257 | 1.6 | 3.2 | 0.00 | 0.00 | 0.00 | 34 | 996.1 |
| 20260504234219 | 18 | 257 | 1.6 | 4.8 | 0.00 | 0.00 | 0.00 | 36 | 996.0 |
| 20260504233719 | 18 | 257 | 3.2 | 6.4 | 0.00 | 0.00 | 0.00 | 35 | 996.1 |
| 20260504233219 | 18 | 259 | 4.8 | 9.7 | 0.00 | 0.00 | 0.00 | 35 | 996.1 |
| 20260504232719 | 18 | 263 | 1.6 | 9.7 | 0.00 | 0.00 | 0.00 | 36 | 996.0 |
| 20260504232219 | 18 | 276 | 1.6 | 1.6 | 0.00 | 0.00 | 0.00 | 34 | 996.2 |
| 20260504231719 | 18 | 276 | 3.2 | 6.4 | 0.00 | 0.00 | 0.00 | 33 | 996.1 |
| 20260504231219 | 18 | 276 | 6.4 | 17.7 | 0.00 | 0.00 | 0.00 | 32 | 996.2 |
| 20260504230719 | 18 | 278 | 4.8 | 14.5 | 0.00 | 0.00 | 0.00 | 32 | 996.2 |
| 20260504230219 | 18 | 277 | 4.8 | 12.9 | 0.00 | 0.00 | 0.00 | 32 | 996.2 |
| 20260504225719 | 19 | 277 | 3.2 | 17.7 | 0.00 | 0.00 | 0.00 | 31 | 996.3 |
| 20260504225219 | 20 | 278 | 3.2 | 9.7 | 0.00 | 0.00 | 0.00 | 32 | 996.3 |
| 20260504224719 | 20 | 278 | 3.2 | 6.4 | 0.00 | 0.00 | 0.00 | 31 | 996.2 |
| 20260504224219 | 20 | 278 | 3.2 | 11.3 | 0.00 | 0.00 | 0.00 | 31 | 996.2 |
| 20260504223719 | 20 | 278 | 1.6 | 6.4 | 0.00 | 0.00 | 0.00 | 33 | 996.1 |
| 20260504223219 | 20 | 278 | 1.6 | 6.4 | 0.00 | 0.00 | 0.00 | 33 | 996.1 |
| 20260504222719 | 20 | 278 | 0.0 | 4.8 | 0.00 | 0.00 | 0.00 | 34 | 996.0 |
| 20260504222219 | 19 | 278 | 1.6 | 4.8 | 0.00 | 0.00 | 0.00 | 32 | 995.9 |
| 20260504221719 | 18 | 278 | 1.6 | 3.2 | 0.00 | 0.00 | 0.00 | 35 | 995.9 |
| 20260504221219 | 18 | 278 | 1.6 | 6.4 | 0.00 | 0.00 | 0.00 | 35 | 996.0 |
| 20260504220719 | 18 | 278 | 1.6 | 6.4 | 0.00 | 0.00 | 0.00 | 36 | 996.0 |
| 20260504220219 | 18 | 278 | 1.6 | 6.4 | 0.00 | 0.00 | 0.00 | 36 | 996.1 |
| 20260504215719 | 18 | 278 | 3.2 | 4.8 | 0.00 | 0.00 | 0.00 | 40 | 996.1 |
| 20260504215219 | 18 | 278 | 3.2 | 9.7 | 0.00 | 0.00 | 0.00 | 38 | 996.3 |
| 20260504214719 | 18 | 278 | 1.6 | 6.4 | 0.00 | 0.00 | 0.00 | 41 | 996.4 |
| 20260504214219 | 18 | 278 | 1.6 | 6.4 | 0.00 | 0.00 | 0.00 | 42 | 996.4 |
| 20260504213719 | 17 | 278 | 3.2 | 8.0 | 0.00 | 0.00 | 0.00 | 41 | 996.4 |
| 20260504213219 | 17 | 278 | 3.2 | 8.0 | 0.00 | 0.00 | 0.00 | 41 | 996.5 |
| 20260504212719 | 17 | 278 | 4.8 | 12.9 | 0.00 | 0.00 | 0.00 | 41 | 996.5 |
| 20260504212219 | 16 | 278 | 4.8 | 9.7 | 0.00 | 0.00 | 0.00 | 43 | 996.5 |
| 20260504211719 | 16 | 278 | 4.8 | 17.7 | 0.00 | 0.00 | 0.00 | 42 | 996.5 |
| 20260504211219 | 16 | 279 | 6.4 | 14.5 | 0.00 | 0.00 | 0.00 | 42 | 996.6 |
| 20260504210719 | 16 | 279 | 8.0 | 14.5 | 0.00 | 0.00 | 0.00 | 41 | 996.7 |
| 20260504210219 | 17 | 284 | 6.4 | 22.5 | 0.00 | 0.00 | 0.00 | 40 | 996.9 |
| 20260504205719 | 17 | 274 | 4.8 | 19.3 | 0.00 | 0.00 | 0.00 | 39 | 996.8 |
| 20260504205219 | 17 | 278 | 4.8 | 11.3 | 0.00 | 0.00 | 0.00 | 39 | 996.8 |
| 20260504204719 | 17 | 278 | 4.8 | 9.7 | 0.00 | 0.00 | 0.00 | 38 | 996.8 |
| 20260504204219 | 17 | 278 | 6.4 | 14.5 | 0.00 | 0.00 | 0.00 | 37 | 996.7 |
| 20260504203719 | 17 | 278 | 4.8 | 12.9 | 0.00 | 0.00 | 0.00 | 36 | 996.7 |
| 20260504203219 | 17 | 279 | 4.8 | 12.9 | 0.00 | 0.00 | 0.00 | 36 | 996.7 |
| 20260504202719 | 17 | 279 | 3.2 | 11.3 | 0.00 | 0.00 | 0.00 | 36 | 996.8 |
| 20260504202219 | 17 | 280 | 3.2 | 11.3 | 0.00 | 0.00 | 0.00 | 35 | 996.9 |
| 20260504201719 | 17 | 280 | 4.8 | 14.5 | 0.00 | 0.00 | 0.00 | 35 | 996.7 |
| 20260504201219 | 18 | 281 | 3.2 | 11.3 | 0.00 | 0.00 | 0.00 | 35 | 996.7 |
| 20260504200719 | 18 | 283 | 3.2 | 9.7 | 0.00 | 0.00 | 0.00 | 35 | 996.7 |
| 20260504200219 | 18 | 281 | 3.2 | 12.9 | 0.00 | 0.00 | 0.00 | 36 | 996.7 |
| 20260504195719 | 19 | 298 | 3.2 | 9.7 | 0.00 | 0.00 | 0.00 | 35 | 996.7 |
| 20260504195219 | 19 | 355 | 1.6 | 9.7 | 0.00 | 0.00 | 0.00 | 33 | 996.7 |
| 20260504194719 | 20 | 225 | 0.0 | 9.7 | 0.00 | 0.00 | 0.00 | 32 | 996.8 |
| 20260504194219 | 20 | 157 | 0.0 | 0.0 | 0.00 | 0.00 | 0.00 | 32 | 996.8 |
| 20260504193719 | 20 | 156 | 0.0 | 0.0 | 0.00 | 0.00 | 0.00 | 31 | 996.7 |
| 20260504193219 | 20 | 156 | 0.0 | 0.0 | 0.00 | 0.00 | 0.00 | 32 | 996.8 |
| 20260504192719 | 20 | 156 | 0.0 | 1.6 | 0.00 | 0.00 | 0.00 | 30 | 997.0 |
| 20260504192219 | 20 | 156 | 0.0 | 6.4 | 0.00 | 0.00 | 0.00 | 31 | 996.9 |
| 20260504191719 | 20 | 156 | 0.0 | 4.8 | 0.00 | 0.00 | 0.00 | 32 | 996.9 |
| 20260504191219 | 20 | 156 | 1.6 | 4.8 | 0.00 | 0.00 | 0.00 | 32 | 996.9 |
| 20260504190719 | 20 | 156 | 1.6 | 3.2 | 0.00 | 0.00 | 0.00 | 33 | 996.9 |
| 20260504190219 | 20 | 157 | 1.6 | 9.7 | 0.00 | 0.00 | 0.00 | 32 | 997.1 |
| 20260504185719 | 20 | 156 | 1.6 | 9.7 | 0.00 | 0.00 | 0.00 | 31 | 997.2 |
| 20260504185219 | 20 | 184 | 1.6 | 4.8 | 0.00 | 0.00 | 0.00 | 32 | 997.1 |
| 20260504184719 | 20 | 186 | 1.6 | 6.4 | 0.00 | 0.00 | 0.00 | 31 | 997.1 |
| 20260504184219 | 21 | 184 | 3.2 | 3.2 | 0.00 | 0.00 | 0.00 | 32 | 997.2 |